| time (UTC) | temp C | wind direction | speed KPH | gust KPH | rain 1hr cm | rain 24hr cm | rain mn cm | humidity % | barometer mb |
| 20260506153056 | 13 | 141 | 6.4 | 22.5 | 0.25 | 0.66 | 0.66 | 92 | 1005.2 |
| 20260506151524 | 14 | 190 | 4.8 | 14.5 | 0.18 | 0.53 | 0.53 | 91 | 1005.5 |
| 20260506150024 | 14 | 112 | 3.2 | 14.5 | 0.15 | 0.48 | 0.48 | 92 | 1005.0 |
| 20260506144525 | 14 | 157 | 6.4 | 16.1 | 0.20 | 0.46 | 0.46 | 91 | 1005.0 |
| 20260506143019 | 13 | 217 | 4.8 | 12.9 | 0.20 | 0.41 | 0.41 | 91 | 1005.3 |
| 20260506141526 | 13 | 168 | 4.8 | 14.5 | 0.20 | 0.36 | 0.36 | 91 | 1005.4 |
| 20260506140015 | 14 | 182 | 3.2 | 11.3 | 0.20 | 0.30 | 0.30 | 91 | 1005.6 |
| 20260506134515 | 14 | 184 | 4.8 | 9.7 | 0.18 | 0.25 | 0.25 | 90 | 1005.9 |
| 20260506133014 | 14 | 136 | 4.8 | 11.3 | 0.18 | 0.20 | 0.20 | 90 | 1006.0 |
| 20260506131513 | 14 | 156 | 3.2 | 11.3 | 0.13 | 0.15 | 0.15 | 88 | 1006.1 |
| 20260506130009 | 14 | 171 | 4.8 | 11.3 | 0.08 | 0.10 | 0.10 | 87 | 1006.1 |
| 20260506124506 | 15 | 135 | 4.8 | 12.9 | 0.03 | 0.05 | 0.05 | 85 | 1006.0 |
| 20260506123012 | 15 | 134 | 4.8 | 19.3 | 0.00 | 0.03 | 0.03 | 84 | 1005.9 |
| 20260506121510 | 15 | 166 | 4.8 | 14.5 | 0.03 | 0.03 | 0.03 | 83 | 1005.8 |
| 20260506120011 | 15 | 203 | 6.4 | 17.7 | 0.03 | 0.03 | 0.03 | 83 | 1005.7 |
| 20260506114503 | 15 | 171 | 4.8 | 14.5 | 0.03 | 0.03 | 0.03 | 83 | 1005.8 |
| 20260506113100 | 15 | 200 | 6.4 | 14.5 | 0.03 | 0.03 | 0.03 | 80 | 1005.8 |
| 20260506111557 | 16 | 141 | 4.8 | 17.7 | 0.00 | 0.00 | 0.00 | 75 | 1005.8 |
| 20260506110107 | 16 | 198 | 6.4 | 17.7 | 0.00 | 0.00 | 0.00 | 73 | 1005.7 |
| 20260506104611 | 16 | 125 | 6.4 | 19.3 | 0.00 | 0.00 | 0.00 | 72 | 1005.4 |
| 20260506103051 | 16 | 161 | 4.8 | 9.7 | 0.00 | 0.00 | 0.00 | 70 | 1005.2 |
| 20260506101552 | 16 | 142 | 4.8 | 8.0 | 0.00 | 0.00 | 0.00 | 69 | 1005.3 |
| 20260506100058 | 16 | 153 | 4.8 | 12.9 | 0.00 | 0.00 | 0.00 | 68 | 1005.3 |
| 20260506094550 | 16 | 152 | 6.4 | 14.5 | 0.00 | 0.00 | 0.00 | 67 | 1005.6 |
| 20260506093045 | 16 | 159 | 4.8 | 12.9 | 0.00 | 0.00 | 0.00 | 67 | 1005.6 |
| 20260506091543 | 16 | 126 | 6.4 | 14.5 | 0.00 | 0.00 | 0.00 | 67 | 1005.6 |
| 20260506090043 | 16 | 141 | 6.4 | 17.7 | 0.00 | 0.00 | 0.00 | 66 | 1005.6 |
| 20260506084611 | 16 | 160 | 8.0 | 16.1 | 0.00 | 0.03 | 0.00 | 65 | 1005.6 |
| 20260506083040 | 16 | 152 | 8.0 | 17.7 | 0.00 | 0.03 | 0.00 | 64 | 1005.8 |
| 20260506081549 | 16 | 143 | 4.8 | 14.5 | 0.00 | 0.03 | 0.00 | 63 | 1005.8 |
| 20260506073030 | 17 | 163 | 3.2 | 11.3 | 0.00 | 0.03 | 0.00 | 61 | 1006.1 |
| 20260506071528 | 17 | 134 | 6.4 | 14.5 | 0.00 | 0.03 | 0.00 | 60 | 1006.2 |
| 20260506061520 | 17 | 142 | 4.8 | 17.7 | 0.00 | 0.03 | 0.00 | 56 | 1006.5 |
| 20260506044508 | 17 | 118 | 8.0 | 17.7 | 0.00 | 0.03 | 0.00 | 54 | 1007.2 |
| 20260506043006 | 17 | 155 | 6.4 | 14.5 | 0.00 | 0.03 | 0.00 | 54 | 1007.3 |
| 20260506041505 | 18 | 148 | 6.4 | 14.5 | 0.00 | 0.03 | 0.00 | 53 | 1007.3 |
| 20260506040001 | 18 | 145 | 4.8 | 12.9 | 0.00 | 0.03 | 0.00 | 52 | 1007.4 |
| 20260506034600 | 18 | 148 | 6.4 | 14.5 | 0.00 | 0.03 | 0.03 | 52 | 1007.4 |
| 20260506033101 | 18 | 138 | 6.4 | 16.1 | 0.00 | 0.03 | 0.03 | 51 | 1007.3 |
| 20260506031700 | 18 | 146 | 3.2 | 11.3 | 0.00 | 0.03 | 0.03 | 51 | 1007.3 |
| 20260506030059 | 18 | 145 | 4.8 | 12.9 | 0.00 | 0.03 | 0.03 | 50 | 1007.3 |
| 20260506024600 | 19 | 126 | 8.0 | 16.1 | 0.00 | 0.03 | 0.03 | 48 | 1007.3 |
| 20260506023108 | 20 | 152 | 4.8 | 11.3 | 0.00 | 0.03 | 0.03 | 46 | 1007.4 |
| 20260506021617 | 20 | 161 | 6.4 | 19.3 | 0.00 | 0.03 | 0.03 | 45 | 1007.5 |
| 20260506020056 | 20 | 200 | 8.0 | 19.3 | 0.00 | 0.03 | 0.03 | 45 | 1007.4 |
| 20260506014556 | 21 | 140 | 6.4 | 16.1 | 0.00 | 0.03 | 0.03 | 44 | 1007.4 |
| 20260506013108 | 21 | 178 | 9.7 | 16.1 | 0.00 | 0.03 | 0.03 | 43 | 1007.3 |
| 20260506011615 | 21 | 171 | 4.8 | 14.5 | 0.00 | 0.03 | 0.03 | 44 | 1007.1 |
| 20260506010058 | 21 | 137 | 6.4 | 17.7 | 0.00 | 0.03 | 0.03 | 43 | 1006.8 |
| 20260506004554 | 21 | 142 | 9.7 | 22.5 | 0.00 | 0.03 | 0.03 | 43 | 1006.6 |
| 20260506003056 | 21 | 163 | 4.8 | 16.1 | 0.00 | 0.03 | 0.03 | 42 | 1006.6 |
| 20260506001556 | 22 | 200 | 9.7 | 16.1 | 0.00 | 0.03 | 0.03 | 42 | 1006.5 |
| 20260506000053 | 22 | 158 | 8.0 | 14.5 | 0.00 | 0.03 | 0.03 | 41 | 1006.3 |
| 20260505234552 | 22 | 134 | 6.4 | 14.5 | 0.00 | 0.03 | 0.03 | 39 | 1006.3 |
| 20260505233051 | 22 | 177 | 6.4 | 14.5 | 0.00 | 0.03 | 0.03 | 37 | 1006.2 |
| 20260505231605 | 22 | 160 | 4.8 | 16.1 | 0.00 | 0.03 | 0.03 | 37 | 1006.2 |
| 20260505230049 | 22 | 132 | 6.4 | 14.5 | 0.00 | 0.03 | 0.03 | 38 | 1006.1 |
| 20260505224548 | 22 | 196 | 4.8 | 22.5 | 0.00 | 0.03 | 0.03 | 37 | 1006.1 |
| 20260505223048 | 22 | 150 | 8.0 | 19.3 | 0.00 | 0.03 | 0.03 | 37 | 1006.0 |
| 20260505221547 | 23 | 123 | 6.4 | 22.5 | 0.00 | 0.03 | 0.03 | 37 | 1006.0 |
| 20260505220051 | 23 | 145 | 9.7 | 20.9 | 0.00 | 0.03 | 0.03 | 36 | 1005.9 |
| 20260505214554 | 23 | 149 | 8.0 | 27.4 | 0.00 | 0.03 | 0.03 | 36 | 1005.8 |
| 20260505213044 | 23 | 159 | 11.3 | 24.1 | 0.00 | 0.03 | 0.03 | 35 | 1005.8 |
| 20260505211543 | 23 | 152 | 8.0 | 30.6 | 0.00 | 0.03 | 0.03 | 33 | 1005.7 |
| 20260505210044 | 24 | 133 | 12.9 | 25.7 | 0.00 | 0.03 | 0.03 | 33 | 1005.6 |
| 20260505204539 | 24 | 146 | 11.3 | 32.2 | 0.00 | 0.03 | 0.03 | 33 | 1005.4 |
| 20260505203054 | 25 | 166 | 12.9 | 25.7 | 0.00 | 0.03 | 0.03 | 32 | 1005.6 |
| 20260505201543 | 25 | 155 | 11.3 | 30.6 | 0.00 | 0.03 | 0.03 | 32 | 1005.4 |
| 20260505200043 | 25 | 172 | 14.5 | 25.7 | 0.00 | 0.03 | 0.03 | 33 | 1005.4 |
| 20260505194537 | 25 | 193 | 12.9 | 25.7 | 0.00 | 0.03 | 0.03 | 33 | 1005.7 |
| 20260505193034 | 26 | 215 | 8.0 | 29.0 | 0.00 | 0.03 | 0.03 | 32 | 1005.8 |
| 20260505191531 | 25 | 171 | 11.3 | 29.0 | 0.00 | 0.03 | 0.03 | 34 | 1006.1 |
| 20260505190036 | 25 | 123 | 9.7 | 32.2 | 0.00 | 0.03 | 0.03 | 34 | 1006.2 |
| 20260505184534 | 25 | 173 | 8.0 | 33.8 | 0.00 | 0.03 | 0.03 | 32 | 1006.2 |
| 20260505183027 | 26 | 143 | 8.0 | 35.4 | 0.00 | 0.03 | 0.03 | 33 | 1006.4 |
| 20260505181528 | 26 | 132 | 9.7 | 29.0 | 0.00 | 0.03 | 0.03 | 33 | 1006.7 |
| 20260505180022 | 25 | 213 | 9.7 | 29.0 | 0.00 | 0.03 | 0.03 | 32 | 1006.9 |
| 20260505174528 | 25 | 184 | 17.7 | 30.6 | 0.00 | 0.03 | 0.03 | 32 | 1006.9 |
| 20260505173017 | 25 | 148 | 11.3 | 32.2 | 0.00 | 0.03 | 0.03 | 36 | 1007.2 |
| 20260505171516 | 25 | 153 | 14.5 | 32.2 | 0.00 | 0.03 | 0.03 | 35 | 1007.1 |
| 20260505170018 | 24 | 116 | 9.7 | 27.4 | 0.00 | 0.03 | 0.03 | 36 | 1007.1 |
| 20260505164512 | 24 | 146 | 9.7 | 19.3 | 0.00 | 0.03 | 0.03 | 38 | 1007.4 |
| 20260505163013 | 24 | 214 | 8.0 | 27.4 | 0.00 | 0.03 | 0.03 | 40 | 1007.5 |
| 20260505161507 | 23 | 123 | 4.8 | 30.6 | 0.00 | 0.03 | 0.03 | 43 | 1007.8 |